User: anonymous   Login
Location: Bow
(51.5261°N, 0.0167°W)
Time: 14:30:44
(UTC+00:00)
Language:

Cosmos 1707 - Orbit

View from above orbital plane
View from above orbital plane
View from above satellite
View from above satellite

Ground track
Ground track

The orbit data is extracted from the following two-line orbital elements,

1 16326U 85113A   21206.90809287  .00001166  00000-0  61152-4 0  9993
2 16326  82.5114 173.3866 0011072 148.9447 211.2442 15.14743978943981
Epoch (UTC): 25 July 2021 21:47:39
Eccentricity: 0.0011072
inclination: 82.5114°
perigee height: 514 km
apogee height: 529 km
right ascension of ascending node: 173.3866°
argument of perigee: 148.9447°
revolutions per day: 15.14743978
mean anomaly at epoch: 211.2442°
orbit number at epoch: 94398

The dashed part of the orbit path shows where the satellite is in the earth's shadow,  

DLR